Flag for U.S.A. Weather past 2 weeks in Santa Clara, California, U.S.A.

Now
67 °F

Passing clouds.


Feels Like: 67 °F
Forecast: 60 / 76 °F
Wind: 3 mph from North

Location: San Jose International Airport

Current Time: Sep 23, 2014 at 12:06:18 PM

Latest Report: Sep 23, 2014 at 10:53 AM


Visibility: 10 mi

Pressure: 30.01 "Hg

Humidity: 73%

Dew point: 58 °F

Location of Santa ClaraLocation

Historic Weather in Santa Clara — Graph

°F

Santa Clara temperature yesterday

Maximum temperature yesterday: 78 °F (at 2:53 PM)
Minimum temperature yesterday: 62 °F (at 5:53 AM)
Average temperature yesterday: 67 °F

Past Weeks' High & Low Weather Summary

 TemperatureHumidityPressure
High88 °F (Sep 10, 3:53 PM)97% (Sep 10, 5:53 AM)30.05 "Hg (Sep 10, 5:53 AM)
Low55 °F (Sep 9, 2:53 AM)22% (Sep 11, 2:53 PM)29.73 "Hg (Sep 17, 4:53 PM)
Average67 °F71%29.88 "Hg
* Reported Sep 8 10:53 AM — Sep 23 10:53 AM, Santa Clara, Weather by CustomWeather, © 2014

Note: Actual official high and low records may vary slightly from our data, if they occured in-between our weather recording intervals... More about our weather records

Advertising

Santa Clara weather history for previous 24 hours

 ConditionsComfort  
Time TempWeatherWind HumidityBarometerVisibility
10:53 AM
Sep 23
67 °FPassing clouds.3 mph73%30.01 "Hg10 mi
9:53 AM65 °FMostly cloudy.No wind76%30.01 "Hg10 mi
8:53 AM63 °FMostly cloudy.5 mph81%30.00 "Hg10 mi
7:53 AM61 °FPartly cloudy.5 mph87%29.99 "Hg10 mi
6:53 AM60 °FPartly cloudy.No wind86%29.99 "Hg10 mi
5:53 AM60 °FPartly cloudy.No wind86%29.97 "Hg10 mi
4:53 AM59 °FPassing clouds.No wind87%29.97 "Hg10 mi
3:53 AM60 °FClear.No wind86%29.97 "Hg10 mi
2:53 AM62 °FClear.3 mph83%29.98 "Hg10 mi
1:53 AM62 °FClear.No wind86%29.98 "Hg10 mi
12:53 AM62 °FClear.5 mph86%29.98 "Hg10 mi
11:53 PM
Sep 22
63 °FClear.7 mph84%29.98 "Hg10 mi
10:53 PM63 °FClear.5 mph81%29.97 "Hg10 mi
9:53 PM64 °FClear.6 mph78%29.98 "Hg10 mi
8:53 PM65 °FClear.8 mph76%29.98 "Hg10 mi
7:53 PM66 °FPassing clouds.10 mph70%29.96 "Hg10 mi
6:53 PM68 °FPassing clouds.15 mph68%29.96 "Hg10 mi
5:53 PM71 °FScattered clouds.10 mph59%29.95 "Hg10 mi
4:53 PM72 °FScattered clouds.18 mph59%29.95 "Hg10 mi
3:53 PM76 °FPassing clouds.12 mph50%29.94 "Hg10 mi
2:53 PM78 °FPassing clouds.7 mph40%29.96 "Hg10 mi
1:53 PM76 °FPassing clouds.6 mph47%29.98 "Hg10 mi
12:53 PM71 °FSunny.9 mph57%30.01 "Hg10 mi
Weather by CustomWeather, © 2014

See weather overviewHow to use our weather pages